Weather Roundup
Issued by NWS Chicago, IL

Home | Current Version | Previous Version | Graphics & Text | Print | Product List | Glossary On
Versions: 1 2 3 4 5 6 7 8 9 10 11 12 13 14 15 16 17 18 19 20 21 22 23 24 25 26 27 28 29 30 31 32 33 34 35 36 37 38 39 40 41 42 43 44 45 46 47 48 49 50
000
NZUS59 KLOT 282312
HRRLOT

CHICAGO AREA WEATHER ROUNDUP
NATIONAL WEATHER SERVICE CHICAGO/ROMEOVILLE IL
600 PM CDT THU MAY 28 2015

NOTE: "FAIR" INDICATES FEW OR NO CLOUDS BELOW 12,000 FEET WITH NO
SIGNIFICANT WEATHER AND/OR OBSTRUCTIONS TO VISIBILITY.

* THESE STATIONS ARE NOT UNDER NWS QUALITY CONTROL. THEY ALSO MAY NOT
  REPORT WEATHER SUCH AS PRECIPITATION OR FOG.

ILZ005-006-012>014-019>023-290000-
NORTHEAST ILLINOIS

CITY           SKY/WX    TMP DP  RH WIND       PRES   REMARKS
OHARE          PTSUNNY   80  52  37 E15       30.10F HX  80
MIDWAY         PTSUNNY   81  54  39 E12       30.10F HX  81
AURORA         MOSUNNY   83  48  29 SE14      30.09F HX  81
LANSING*       MOSUNNY   80  48  32 SE14      30.11F
JOLIET*        MOSUNNY   83  53  36 SE8       30.09F HX  82
WAUKEGAN       MOSUNNY   73  57  57 E5        30.12F
DUPAGE AIRPORT MOSUNNY   82  51  34 SE9       30.09F HX  81
WHEELING       MOSUNNY   79  53  40 E10       30.12F
KANKAKEE*      MOSUNNY   82  54  38 SE6       30.09F HX  81
MORRIS*        MOSUNNY   83  50  31 SE13      30.07F HX  82
LEWIS AIRPORT* MOSUNNY   82  49  32 SE12      30.09F HX  80
NORTHERLY IS     N/A     68  56  65 N7          N/A
$$

WIZ051-052-058>065-066-070>072-290000-
SOUTHEAST WISCONSIN

CITY           SKY/WX    TMP DP  RH WIND       PRES   REMARKS
MILWAUKEE      PTSUNNY   74  55  51 SE12      30.12F
KENOSHA*       MOSUNNY   76  57  51 E12       30.13F
RACINE*        MOSUNNY   74  55  51 S7        30.15F
BURLINGTON     MOSUNNY   78  50  38 SE13      30.11F
WAUKESHA       SUNNY     75  52  43 SE14      30.14F
WEST BEND      SUNNY     77  54  44 SE8       30.11F
$$

INZ001>003-010>013-019-020-290000-
NORTHWEST INDIANA

CITY           SKY/WX    TMP DP  RH WIND       PRES   REMARKS
GARY*          MOSUNNY   73  55  53 SE13      30.12F
MICHIGAN CITY* NOT AVBL
RENSSELAER*    NOT AVBL
VALPARAISO     SUNNY     81  54  39 E10       30.12F HX  81
$$

LMZ740>746-290000-
SOUTHERN LAKE MICHIGAN

STATION/POSITION TIME  SKY/WX   TEMP WIND        PRES    VSBY
                                AIR  DIR/SP/G
                 (UTC)          (F)  (DEG/KT/KT) (MB)    (MI)
HARRISON CRIB    2200            64   50/ 10/ 13   N/A
BURNHAM HARBOR   2300            67   10/  4/  7   N/A
CALUMET HARBOR   2200            68   30/  6/ 11   N/A
BURNS HARBOR     2200            64   70/  8/ 12 1021.0S
MICHIGAN CITY    2200            62   30/ 10/ 12   N/A
$$

ABBREVIATIONS USED IN REMARKS
   TC - TEMPERATURE IN CELSIUS
  WCI - WIND CHILL INDEX
   HX - HEAT INDEX
  VSB - VISIBILITY
$$


USA.gov is the U.S. government's official web portal to all federal, state and local government web resources and services.